AJ7DN Weather Reports


Display with metric or nautical units.
time (UTC)temp
F
wind
direction
speed
MPH
gust
MPH
rain 1hr
in
rain 24hr
in
rain mn
in
humidity
%
barometer
mb
20260507051457 59 69 0.0 0.0 0.00 0.00 0.00 76 1025.6
20260507050954 59 83 0.0 0.0 0.00 0.00 0.00 75 1025.8
20260507050450 59 74 0.0 0.0 0.00 0.00 0.00 75 1025.8
20260507045948 59 68 0.0 0.0 0.00 0.00 0.00 75 1025.4
20260507045444 60 122 0.0 0.0 0.00 0.00 0.00 75 1025.8
20260507044941 60 106 0.0 0.0 0.00 0.00 0.00 75 1025.7
20260507044438 60 88 0.0 0.0 0.00 0.00 0.00 75 1025.6
20260507043934 60 73 0.0 0.0 0.00 0.00 0.00 75 1025.4
20260507043430 60 105 0.0 0.0 0.00 0.00 0.00 75 1025.4
20260507042927 60 101 0.0 1.0 0.00 0.00 0.00 75 1025.4
20260507042424 61 102 0.0 0.0 0.00 0.00 0.00 75 1025.6
20260507041919 61 81 0.0 0.0 0.00 0.00 0.00 75 1025.6
20260507041416 61 102 0.0 0.0 0.00 0.00 0.00 75 1025.4
20260507040914 61 90 0.0 0.0 0.00 0.00 0.00 75 1025.3
20260507040409 61 63 0.0 0.0 0.00 0.00 0.00 75 1025.1
20260507035905 61 114 0.0 0.0 0.00 0.00 0.00 75 1025.0
20260507035401 61 116 0.0 0.0 0.00 0.00 0.00 75 1025.2
20260507034859 62 94 0.0 0.0 0.00 0.00 0.00 75 1025.1
20260507034355 62 98 0.0 0.0 0.00 0.00 0.00 75 1024.9
20260507033853 62 107 0.0 0.0 0.00 0.00 0.00 75 1024.8
20260507033351 62 106 0.0 0.0 0.00 0.00 0.00 74 1024.6
20260507032848 62 103 0.0 0.0 0.00 0.00 0.00 74 1024.7
20260507032345 62 93 0.0 0.0 0.00 0.00 0.00 74 1024.5
20260507031841 62 102 0.0 0.0 0.00 0.00 0.00 73 1024.4
20260507031338 63 95 0.0 0.0 0.00 0.00 0.00 72 1024.4
20260507030834 63 85 0.0 0.0 0.00 0.00 0.00 72 1024.4
20260507030332 64 108 0.0 0.0 0.00 0.00 0.00 71 1024.1
20260507025828 64 114 0.0 0.0 0.00 0.00 0.00 71 1024.1
20260507025326 64 101 0.0 0.0 0.00 0.00 0.00 70 1024.3
20260507024824 65 89 0.0 0.0 0.00 0.00 0.00 70 1024.0
20260507024321 65 117 0.0 0.0 0.00 0.00 0.00 70 1024.2
20260507023816 65 106 0.0 0.0 0.00 0.00 0.00 70 1024.3
20260507023313 66 97 0.0 1.0 0.00 0.00 0.00 69 1024.0
20260507022810 66 80 0.0 1.0 0.00 0.00 0.00 69 1023.8
20260507022307 66 99 0.0 0.0 0.00 0.00 0.00 68 1023.9
20260507021803 66 68 0.0 1.0 0.00 0.00 0.00 68 1023.9
20260507021259 66 71 0.0 0.0 0.00 0.00 0.00 68 1024.1
20260507020757 67 91 0.0 0.0 0.00 0.00 0.00 69 1024.0
20260507020253 67 63 0.0 0.0 0.00 0.00 0.00 68 1024.2
20260507015751 67 84 0.0 0.0 0.00 0.00 0.00 68 1024.0
20260507015248 67 89 0.0 0.0 0.00 0.00 0.00 68 1024.1
20260507014745 67 117 0.0 0.0 0.00 0.00 0.00 68 1024.2
20260507014241 67 113 0.0 0.0 0.00 0.00 0.00 68 1024.0
20260507013738 68 96 0.0 0.0 0.00 0.00 0.00 67 1024.2
20260507013235 68 73 0.0 1.0 0.00 0.00 0.00 65 1024.1
20260507012732 68 59 1.0 2.0 0.00 0.00 0.00 65 1024.0
20260507012228 68 50 1.0 2.0 0.00 0.00 0.00 65 1023.8
20260507011726 68 148 0.0 0.0 0.00 0.00 0.00 65 1023.9
20260507011222 68 70 1.0 1.0 0.00 0.00 0.00 65 1023.9
20260507010721 69 103 0.0 0.0 0.00 0.00 0.00 64 1023.7
20260507010218 69 112 0.0 0.0 0.00 0.00 0.00 64 1023.7
20260507005716 70 201 0.0 1.0 0.00 0.00 0.00 63 1024.0
20260507005211 70 139 0.0 0.0 0.00 0.00 0.00 63 1023.8
20260507004708 70 192 1.0 2.0 0.00 0.00 0.00 63 1023.9
20260507004206 71 198 1.0 2.0 0.00 0.00 0.00 62 1024.0
20260507003702 71 259 1.0 1.0 0.00 0.00 0.00 63 1023.8
20260507003157 72 152 0.0 0.0 0.00 0.00 0.00 61 1023.8
20260507002654 72 79 0.0 0.0 0.00 0.00 0.00 61 1023.8
20260507002149 70 111 0.0 0.0 0.00 0.00 0.00 63 1023.8
20260507001647 70 109 0.0 0.0 0.00 0.00 0.00 63 1023.7
20260507001144 70 128 0.0 0.0 0.00 0.00 0.00 64 1023.9
20260507000640 70 63 1.0 1.0 0.00 0.00 0.00 63 1023.9
20260507000135 70 111 0.0 0.0 0.00 0.00 0.00 63 1023.6
20260506235633 70 104 0.0 0.0 0.00 0.00 0.00 65 1023.9
20260506235133 70 119 0.0 0.0 0.00 0.00 0.00 65 1023.8
20260506234631 70 144 0.0 0.0 0.00 0.00 0.00 64 1023.8
20260506234128 70 158 0.0 0.0 0.00 0.00 0.00 66 1023.8
20260506233625 70 232 1.0 2.0 0.00 0.00 0.00 64 1023.8
20260506233122 71 77 1.0 1.0 0.00 0.00 0.00 63 1023.9
20260506232618 71 90 0.0 1.0 0.00 0.00 0.00 62 1023.9
20260506232114 71 92 0.0 0.0 0.00 0.00 0.00 62 1023.9
20260506231611 71 71 1.0 1.0 0.00 0.00 0.00 63 1024.0
20260506231109 71 39 1.0 1.0 0.00 0.00 0.00 63 1024.0
20260506230605 71 96 0.0 0.0 0.00 0.00 0.00 64 1024.1
20260506230103 70 47 0.0 0.0 0.00 0.00 0.00 63 1024.0
20260506225559 70 107 0.0 0.0 0.00 0.00 0.00 63 1024.3
20260506225055 71 113 0.0 0.0 0.00 0.00 0.00 63 1024.1
20260506224553 71 71 0.0 1.0 0.00 0.00 0.00 63 1024.4
20260506224049 71 104 0.0 0.0 0.00 0.00 0.00 63 1024.6
20260506223545 71 90 1.0 1.0 0.00 0.00 0.00 61 1024.4
20260506223042 72 51 1.0 1.0 0.00 0.00 0.00 61 1024.5
20260506222539 71 188 1.0 1.0 0.00 0.00 0.00 63 1024.6
20260506222035 71 223 1.0 2.0 0.00 0.00 0.00 60 1024.7
20260506221533 70 78 0.0 0.0 0.00 0.00 0.00 64 1024.5
20260506221030 69 118 0.0 0.0 0.00 0.00 0.00 64 1024.5
20260506220526 70 69 0.0 0.0 0.00 0.00 0.00 63 1024.4
20260506220022 70 98 0.0 0.0 0.00 0.00 0.00 65 1024.5
20260506215519 69 62 0.0 0.0 0.00 0.00 0.00 67 1024.6
20260506215015 69 55 0.0 1.0 0.00 0.00 0.00 65 1024.5
20260506214512 69 100 0.0 0.0 0.00 0.00 0.00 67 1024.6
20260506214009 69 88 0.0 0.0 0.00 0.00 0.00 67 1024.5
20260506213507 69 89 0.0 0.0 0.00 0.00 0.00 65 1024.7
20260506213004 69 101 0.0 0.0 0.00 0.00 0.00 67 1024.8
20260506212500 68 248 0.0 1.0 0.00 0.00 0.00 66 1024.9
20260506211954 68 84 0.0 0.0 0.00 0.00 0.00 67 1024.9
20260506211451 68 90 0.0 0.0 0.00 0.00 0.00 67 1025.0
20260506210948 69 53 0.0 1.0 0.00 0.00 0.00 67 1025.0
20260506210444 69 91 0.0 1.0 0.00 0.00 0.00 67 1025.1
20260506205942 68 59 1.0 1.0 0.00 0.00 0.00 68 1025.1
20260506205438 68 77 0.0 1.0 0.00 0.00 0.00 67 1024.8
20260506204934 67 133 1.0 2.0 0.00 0.00 0.00 70 1024.9
20260506204432 68 72 0.0 0.0 0.00 0.00 0.00 69 1025.0
20260506203929 68 137 2.0 5.0 0.00 0.00 0.00 67 1024.8
20260506203426 68 114 0.0 0.0 0.00 0.00 0.00 68 1024.8
20260506202923 69 37 0.0 1.0 0.00 0.00 0.00 68 1025.1
20260506202420 67 63 0.0 0.0 0.00 0.00 0.00 69 1025.0
20260506201917 66 86 0.0 0.0 0.00 0.00 0.00 72 1025.0
20260506201414 65 33 1.0 1.0 0.00 0.00 0.00 74 1025.1
20260506200911 64 184 1.0 1.0 0.00 0.00 0.00 73 1025.4
20260506200407 64 79 1.0 1.0 0.00 0.00 0.00 74 1025.4
20260506195904 64 144 1.0 1.0 0.00 0.00 0.00 75 1025.7
20260506195401 64 75 0.0 0.0 0.00 0.00 0.00 75 1025.7
20260506194857 64 71 1.0 1.0 0.00 0.00 0.00 75 1025.7
20260506194354 64 238 2.0 2.0 0.00 0.00 0.00 74 1025.4
20260506193852 63 105 0.0 0.0 0.00 0.00 0.00 75 1025.7
20260506193348 64 60 0.0 0.0 0.00 0.00 0.00 75 1025.6
20260506192844 64 135 0.0 0.0 0.00 0.00 0.00 75 1025.7
20260506192341 63 136 0.0 0.0 0.00 0.00 0.00 76 1025.3
20260506191838 64 268 0.0 0.0 0.00 0.00 0.00 75 1025.4
20260506191335 63 79 0.0 1.0 0.00 0.00 0.00 76 1025.6
20260506190832 63 45 1.0 1.0 0.00 0.00 0.00 76 1025.6
20260506190328 64 151 0.0 1.0 0.00 0.00 0.00 75 1025.2
20260506185825 64 94 1.0 1.0 0.00 0.00 0.00 74 1025.3
20260506185322 64 30 1.0 1.0 0.00 0.00 0.00 74 1025.3
20260506184819 64 55 1.0 1.0 0.00 0.00 0.00 73 1025.0
20260506184316 63 103 0.0 1.0 0.00 0.00 0.00 75 1025.0
20260506183814 62 144 0.0 0.0 0.00 0.00 0.00 76 1025.3
20260506183309 62 102 0.0 0.0 0.00 0.00 0.00 77 1025.2
20260506182806 62 227 0.0 0.0 0.00 0.00 0.00 77 1025.2
20260506182306 61 37 1.0 1.0 0.00 0.00 0.00 78 1025.4
20260506181801 62 75 1.0 1.0 0.00 0.00 0.00 77 1025.6
20260506181259 61 91 0.0 1.0 0.00 0.00 0.00 78 1025.3
20260506180756 62 140 0.0 0.0 0.00 0.00 0.00 78 1025.6
20260506180251 62 139 0.0 0.0 0.00 0.00 0.00 79 1025.6
20260506175748 62 47 0.0 0.0 0.00 0.00 0.00 78 1025.2
20260506175245 61 43 0.0 0.0 0.00 0.00 0.00 78 1025.6
20260506174742 61 118 0.0 0.0 0.00 0.00 0.00 78 1025.4
20260506174239 61 141 0.0 0.0 0.00 0.00 0.00 78 1025.4
20260506173737 61 67 0.0 1.0 0.00 0.00 0.00 77 1025.3
20260506173233 61 107 0.0 0.0 0.00 0.00 0.00 79 1025.3
20260506172730 60 257 1.0 1.0 0.00 0.00 0.00 79 1025.3
20260506172227 60 55 1.0 1.0 0.00 0.00 0.00 79 1025.1
20260506171725 60 83 0.0 0.0 0.00 0.00 0.00 80 1025.7
20260506171222 59 72 1.0 1.0 0.00 0.00 0.00 80 1025.2
20260506170719 59 122 0.0 0.0 0.00 0.00 0.00 81 1025.1
20260506170216 59 111 0.0 0.0 0.00 0.00 0.00 81 1025.1
20260506165714 59 232 1.0 1.0 0.00 0.00 0.00 81 1025.6
20260506165211 59 72 0.0 1.0 0.00 0.00 0.00 80 1025.3
20260506164708 59 83 0.0 1.0 0.00 0.00 0.00 81 1025.3
20260506164205 59 175 0.0 0.0 0.00 0.00 0.00 81 1025.4
20260506163701 59 69 0.0 0.0 0.00 0.00 0.00 81 1025.3
20260506163156 58 166 0.0 0.0 0.00 0.00 0.00 82 1025.3
20260506162653 58 145 0.0 0.0 0.00 0.00 0.00 82 1025.2
20260506162150 59 148 0.0 1.0 0.00 0.00 0.00 81 1025.0
20260506161648 58 60 0.0 0.0 0.00 0.00 0.00 83 1024.9
20260506161144 59 155 0.0 0.0 0.00 0.00 0.00 82 1025.1
20260506160642 59 67 1.0 1.0 0.00 0.00 0.00 81 1025.0
20260506160139 59 229 2.0 2.0 0.00 0.00 0.00 82 1024.9
20260506155637 59 93 0.0 0.0 0.00 0.00 0.00 82 1024.9
20260506155134 57 98 0.0 0.0 0.00 0.00 0.00 84 1024.7
20260506153236 57 64 0.0 0.0 0.00 0.00 0.00 85 1024.9
20260506152733 57 114 0.0 0.0 0.00 0.00 0.00 86 1025.0
20260506152230 57 195 0.0 0.0 0.00 0.00 0.00 86 1025.3
20260506151729 57 105 0.0 0.0 0.00 0.00 0.00 86 1025.3
20260506151225 56 131 0.0 0.0 0.00 0.00 0.00 87 1025.3
20260506150722 56 163 0.0 0.0 0.00 0.00 0.00 87 1025.3
20260506150219 56 100 0.0 0.0 0.00 0.00 0.00 87 1025.1
20260506145716 56 233 0.0 0.0 0.00 0.00 0.00 87 1025.2
20260506145213 56 113 0.0 0.0 0.00 0.00 0.00 87 1025.3
20260506144710 56 118 0.0 0.0 0.00 0.00 0.00 87 1025.0
20260506144207 56 161 0.0 0.0 0.00 0.00 0.00 87 1025.1
20260506143704 56 161 0.0 0.0 0.00 0.00 0.00 88 1025.0
20260506143202 56 177 0.0 0.0 0.00 0.00 0.00 88 1024.8
20260506142701 56 222 0.0 0.0 0.00 0.00 0.00 87 1024.5
20260506142158 56 54 0.0 0.0 0.00 0.00 0.00 87 1024.3
20260506141656 56 70 0.0 0.0 0.00 0.00 0.00 87 1024.4
20260506141154 56 69 0.0 0.0 0.00 0.00 0.00 87 1024.1
20260506140651 56 87 0.0 0.0 0.00 0.00 0.00 88 1024.0
20260506140148 56 89 0.0 0.0 0.00 0.00 0.00 88 1024.2
20260506135645 56 76 0.0 0.0 0.00 0.00 0.00 88 1024.2
20260506135141 56 86 0.0 0.0 0.00 0.00 0.00 89 1024.0
20260506134638 56 70 0.0 0.0 0.00 0.00 0.00 89 1024.1
20260506134133 56 95 0.0 0.0 0.00 0.00 0.00 89 1024.2
20260506133631 56 72 0.0 0.0 0.00 0.00 0.00 88 1024.0
20260506133128 56 77 0.0 0.0 0.00 0.00 0.00 88 1023.9
20260506132625 56 78 0.0 0.0 0.00 0.00 0.00 88 1024.1
20260506132122 56 80 0.0 0.0 0.00 0.00 0.00 88 1023.9
20260506131620 56 92 0.0 0.0 0.00 0.00 0.00 88 1023.8
20260506131115 56 102 0.0 0.0 0.00 0.00 0.00 88 1024.0
20260506130613 56 96 0.0 0.0 0.00 0.00 0.00 88 1023.7
20260506130110 56 77 0.0 0.0 0.00 0.00 0.00 88 1023.8
20260506125608 56 109 0.0 0.0 0.00 0.00 0.00 88 1023.9
20260506125106 56 95 0.0 0.0 0.00 0.00 0.00 88 1023.8
20260506124603 56 94 0.0 0.0 0.00 0.00 0.00 88 1023.7
20260506124101 56 94 0.0 0.0 0.00 0.00 0.00 88 1023.7
20260506123558 57 96 0.0 0.0 0.00 0.00 0.00 88 1023.8
20260506123057 57 103 0.0 0.0 0.00 0.00 0.00 88 1023.6
20260506122553 57 96 0.0 0.0 0.00 0.00 0.00 89 1023.8
20260506122051 57 129 0.0 0.0 0.00 0.00 0.00 89 1023.9
20260506121548 57 96 0.0 0.0 0.00 0.00 0.00 88 1023.7
20260506121044 57 86 0.0 0.0 0.00 0.00 0.00 88 1023.6
20260506120543 57 86 0.0 0.0 0.00 0.00 0.00 88 1023.7
20260506120040 57 102 0.0 0.0 0.00 0.00 0.00 88 1023.6
20260506115538 57 92 0.0 0.0 0.00 0.00 0.00 88 1023.5
20260506115036 57 82 0.0 0.0 0.00 0.00 0.00 88 1023.5
20260506114533 57 134 0.0 0.0 0.00 0.00 0.00 88 1023.5
20260506114031 57 98 0.0 0.0 0.00 0.00 0.00 88 1023.4
20260506113529 57 94 0.0 0.0 0.00 0.00 0.00 88 1023.2
20260506113026 57 84 0.0 0.0 0.00 0.00 0.00 88 1023.4
20260506112522 57 94 0.0 0.0 0.00 0.00 0.00 87 1023.2
20260506112020 57 97 0.0 0.0 0.00 0.00 0.00 87 1023.3
20260506111518 57 96 0.0 0.0 0.00 0.00 0.00 87 1023.2
20260506111015 57 95 0.0 0.0 0.00 0.00 0.00 88 1022.8
20260506110512 57 140 0.0 0.0 0.00 0.00 0.00 89 1023.2
20260506110009 57 140 0.0 0.0 0.00 0.00 0.00 89 1023.0
20260506105505 57 140 0.0 0.0 0.00 0.00 0.00 88 1022.8
20260506105003 58 140 0.0 0.0 0.00 0.00 0.00 88 1022.8
20260506104501 57 140 0.0 0.0 0.00 0.00 0.00 88 1022.6
20260506103958 57 139 0.0 0.0 0.00 0.00 0.00 88 1022.5
20260506103455 57 131 0.0 0.0 0.00 0.00 0.00 87 1022.4
20260506102952 58 141 0.0 0.0 0.00 0.00 0.00 88 1022.4
20260506102450 58 137 0.0 0.0 0.00 0.00 0.00 88 1022.3
20260506101947 58 142 0.0 0.0 0.00 0.00 0.00 88 1022.4
20260506101444 58 113 0.0 0.0 0.00 0.00 0.00 88 1022.4
20260506100941 58 87 0.0 0.0 0.00 0.00 0.00 87 1022.3
20260506100439 58 75 0.0 0.0 0.00 0.00 0.00 87 1022.3
20260506095937 58 144 0.0 0.0 0.00 0.00 0.00 88 1022.3
20260506095435 58 145 0.0 0.0 0.00 0.00 0.00 87 1022.2
20260506094931 58 137 0.0 0.0 0.00 0.00 0.00 87 1022.0
20260506094430 58 120 0.0 0.0 0.00 0.00 0.00 87 1022.0
20260506093927 58 115 0.0 0.0 0.00 0.00 0.00 87 1022.0
20260506093425 59 115 0.0 0.0 0.00 0.00 0.00 88 1021.9
20260506092922 59 107 0.0 0.0 0.00 0.00 0.00 87 1022.1
20260506092420 59 106 0.0 0.0 0.00 0.00 0.00 86 1022.0
20260506091916 59 121 0.0 0.0 0.00 0.00 0.00 87 1022.0
20260506091415 59 121 0.0 0.0 0.00 0.00 0.00 87 1022.0
20260506090911 58 133 0.0 0.0 0.00 0.00 0.00 87 1022.0
20260506090409 59 133 0.0 0.0 0.00 0.00 0.00 88 1021.9
20260506085906 59 133 0.0 0.0 0.00 0.00 0.00 87 1021.9
20260506085402 59 100 0.0 0.0 0.00 0.00 0.00 87 1021.7
20260506084858 59 93 0.0 0.0 0.00 0.00 0.00 88 1022.0
20260506084355 59 139 0.0 0.0 0.00 0.00 0.00 88 1021.9
20260506083852 59 112 0.0 0.0 0.00 0.00 0.00 87 1022.1
20260506083350 59 113 0.0 0.0 0.00 0.00 0.00 87 1021.7
20260506082847 59 96 0.0 0.0 0.00 0.00 0.00 87 1021.8
20260506082344 59 138 0.0 0.0 0.00 0.00 0.00 87 1021.9
20260506081839 59 138 0.0 0.0 0.00 0.00 0.00 87 1021.8
20260506081338 59 139 0.0 0.0 0.00 0.00 0.00 87 1021.7
20260506080835 59 138 0.0 0.0 0.00 0.00 0.00 87 1021.8
20260506080331 59 134 0.0 0.0 0.00 0.00 0.00 87 1021.6
20260506073316 59 133 0.0 0.0 0.00 0.00 0.00 87 1021.5
20260506072812 59 133 0.0 0.0 0.00 0.00 0.00 86 1021.5
20260506072310 60 134 0.0 0.0 0.00 0.00 0.00 86 1021.4
20260506071807 60 84 0.0 0.0 0.00 0.00 0.00 85 1021.5
20260506071306 60 79 0.0 0.0 0.00 0.00 0.00 86 1021.5
20260506070802 60 144 0.0 0.0 0.00 0.00 0.00 85 1021.4
20260506070259 60 144 0.0 0.0 0.00 0.00 0.00 85 1021.6
20260506062236 60 141 0.0 0.0 0.00 0.00 0.00 84 1021.2
20260506061732 60 142 0.0 0.0 0.00 0.00 0.00 84 1021.3
20260506061230 60 140 0.0 0.0 0.00 0.00 0.00 84 1021.2
20260506060728 59 140 0.0 0.0 0.00 0.00 0.00 85 1021.4
20260506060225 60 140 0.0 0.0 0.00 0.00 0.00 86 1021.2